Flag for Poland Weather past 2 weeks in Gorzów Wielkopolski, Poland

Now
32 °F

Snow. Low clouds.


Feels Like: 32 °F
Forecast: 30 / 36 °F
Wind: 2 mph from Southwest

Location: Gorzow Wlkp

Current Time: Jan 27, 2015 at 3:12:38 AM

Latest Report: Jan 27, 2015 at 2:00 AM


Visibility: 0 mi

Pressure: 29.78 "Hg

Humidity: 99%

Dew point: 32 °F

Location of Gorzów WielkopolskiLocation

Historic Weather in Gorzów Wielkopolski — Graph

°F

Gorzów Wielkopolski temperature yesterday

Maximum temperature yesterday: 36 °F (at 3:00 PM)
Minimum temperature yesterday: 29 °F (at 5:00 AM)
Average temperature yesterday: 33 °F

Past Weeks' High & Low Weather Summary

 TemperatureHumidityPressure
High52 °F (Jan 13, 8:00 PM)100% (Jan 19, 2:00 AM)30.30 "Hg (Jan 19, 2:00 AM)
Low26 °F (Jan 18, 8:00 AM)51% (Jan 13, 8:00 PM)29.64 "Hg (Jan 15, 9:00 PM)
Average36 °F89%29.97 "Hg
* Reported Jan 12 1:00 AM — Jan 27 1:00 AM, Gorzów Wielkopolski, Weather by CustomWeather, © 2014

Note: Actual official high and low records may vary slightly from our data, if they occured in-between our weather recording intervals... More about our weather records

Advertising

Gorzów Wielkopolski weather history for previous 24 hours

 ConditionsComfort  
Time TempWeatherWind HumidityBarometerVisibility
1:00 AM
Jan 27
32 °FLight snow. Low clouds.2 mph99%29.80 "Hg1 mi
12:00 AM32 °FSnow. Low clouds.2 mph98%29.83 "Hg1 mi
11:00 PM
Jan 26
32 °FSnow. Low clouds.3 mph97%29.85 "Hg1 mi
9:00 PM36 °FLight rain. Overcast.5 mph86%29.90 "Hg7 mi
8:00 PM35 °FOvercast.5 mph86%29.94 "Hg7 mi
7:00 PM36 °FOvercast.5 mph86%29.97 "Hg12 mi
6:00 PM34 °FLight snow. Overcast.3 mph90%30.00 "Hg6 mi
5:00 PM35 °FOvercast.5 mph87%30.03 "Hg12 mi
4:00 PM36 °FOvercast.3 mph84%30.06 "Hg16 mi
3:00 PM36 °FOvercast.3 mph82%30.09 "Hg19 mi
2:00 PM36 °FOvercast.3 mph79%30.11 "Hg19 mi
1:00 PM36 °FLow clouds.3 mph82%30.15 "Hg19 mi
12:00 PM35 °FOvercast.3 mph90%30.18 "Hg12 mi
11:00 AM33 °FOvercast.3 mph97%30.22 "Hg12 mi
10:00 AM32 °FLight snow. Overcast.2 mph100%30.24 "Hg2 mi
9:00 AM31 °FFog.1 mph100%30.25 "Hg1 mi
8:00 AM31 °FFog.1 mph99%30.26 "Hg1 mi
7:00 AM30 °FFog.1 mph99%30.27 "Hg1 mi
6:00 AM30 °FFog.2 mph99%30.27 "Hg0 mi
5:00 AM29 °FSnow flurries. Low clouds.2 mph99%30.27 "Hg0 mi
3:00 AM31 °FFog.2 mph98%30.28 "Hg4 mi
Weather by CustomWeather, © 2014

See weather overviewHow to use our weather pages